Location: Unspecified
(40.7945°N, 0.0000°E)
Time: 15:21:27
(UTC+00:00)

Vanguard 2 Rocket - All Passes

Search period start: 25 January 2021 00:00
Search period end: 04 February 2021 00:00
Orbit: 554 x 3325 km, 32.9° (Epoch: 25 January)

Date Brightness Start Highest point End Pass type
(mag) Time Alt. Az. Time Alt. Az. Time Alt. Az.
25 Jan - 12:22:43 10° SSW 12:36:20 27° SSE 12:46:14 10° E daylight
25 Jan - 14:37:08 10° SW 14:51:43 45° SSE 15:00:27 10° E daylight
25 Jan - 16:54:38 10° WSW 17:06:04 52° S 17:12:35 10° ESE daylight
25 Jan - 19:12:08 10° W 19:18:51 29° SSW 19:23:21 10° SSE visible
26 Jan - 11:22:57 10° S 11:35:15 21° SE 11:45:06 10° ESE daylight
26 Jan - 13:35:20 10° SW 13:50:59 41° SSE 14:00:57 10° E daylight
26 Jan - 15:52:24 10° WSW 16:05:58 54° S 16:13:39 10° ESE daylight
26 Jan - 18:10:21 10° W 18:19:31 41° SSW 18:25:01 10° SE visible
26 Jan - 20:29:12 10° WSW 20:31:13 12° SW 20:33:01 10° SSW visible
27 Jan - 10:24:48 10° S 10:34:06 15° SE 10:42:20 10° ESE daylight
27 Jan - 12:33:57 10° SSW 12:49:57 36° SSE 13:01:02 10° E daylight
27 Jan - 14:50:04 10° WSW 15:05:31 53° S 15:14:31 10° E daylight
27 Jan - 17:08:16 10° W 17:19:49 50° SSW 17:26:24 10° ESE daylight
27 Jan - 19:26:22 10° W 19:32:14 22° SW 19:36:24 10° SSE visible
28 Jan - 11:33:16 10° SSW 11:48:44 30° SSE 12:00:32 10° E daylight
28 Jan - 13:47:52 10° SW 14:04:41 50° SSE 14:15:06 10° E daylight
28 Jan - 16:05:53 10° WSW 16:19:44 56° S 16:27:33 10° ESE daylight
28 Jan - 18:24:16 10° W 18:33:01 34° SSW 18:38:28 10° SE visible
29 Jan - 10:33:32 10° S 10:47:28 24° SE 10:59:09 10° E daylight
29 Jan - 12:46:01 10° SW 13:03:33 46° SSE 13:15:21 10° E daylight
29 Jan - 15:03:20 10° WSW 15:19:16 59° S 15:28:27 10° ESE daylight
29 Jan - 17:22:00 10° W 17:33:27 45° SSW 17:40:04 10° SE daylight
29 Jan - 19:41:17 10° WSW 19:45:23 15° SW 19:48:40 10° S visible
30 Jan - 09:35:20 10° S 09:46:15 17° SE 09:56:16 10° ESE daylight
30 Jan - 11:44:44 10° SSW 12:02:12 40° SSE 12:15:09 10° E daylight
30 Jan - 14:00:50 10° WSW 14:18:24 57° S 14:29:06 10° E daylight
30 Jan - 16:19:30 10° W 16:33:27 55° SSW 16:41:21 10° ESE daylight
30 Jan - 18:38:24 10° W 18:46:19 26° SW 18:51:34 10° SSE visible
31 Jan - 08:41:35 10° SE 08:45:11 11° SE 08:48:46 10° ESE daylight
31 Jan - 10:44:13 10° SSW 11:00:45 33° SSE 11:14:20 10° E daylight
31 Jan - 12:58:39 10° SW 13:17:09 54° SSE 13:29:26 10° E daylight
31 Jan - 15:16:49 10° WSW 15:33:00 60° S 15:42:20 10° ESE daylight
31 Jan - 17:35:51 10° W 17:46:53 38° SSW 17:53:31 10° SE visible
01 Feb - 09:44:42 10° S 09:59:21 26° SE 10:12:36 10° E daylight
01 Feb - 11:56:56 10° SW 12:15:39 49° SSE 12:29:22 10° E daylight
01 Feb - 14:14:08 10° WSW 14:32:06 62° S 14:43:01 10° E daylight
01 Feb - 16:33:12 10° W 16:47:01 49° SSW 16:55:00 10° SE daylight
01 Feb - 18:53:02 10° W 18:59:22 18° SW 19:04:00 10° S visible
02 Feb - 08:46:39 10° S 08:58:09 19° SE 09:09:23 10° E daylight
02 Feb - 10:55:55 10° SW 11:14:01 42° SSE 11:28:49 10° E daylight
02 Feb - 13:11:41 10° WSW 13:30:47 61° S 13:43:23 10° E daylight
02 Feb - 15:30:25 10° W 15:46:39 58° SSW 15:56:06 10° ESE daylight
02 Feb - 17:49:54 10° W 18:00:06 30° SW 18:06:36 10° SSE visible
03 Feb - 07:52:24 10° SE 07:57:14 11° SE 08:02:07 10° ESE daylight
03 Feb - 09:55:42 10° SSW 10:12:26 35° SE 10:27:35 10° E daylight
03 Feb - 12:09:41 10° SW 12:29:09 57° SSE 12:43:23 10° E daylight
03 Feb - 14:27:37 10° W 14:45:47 63° S 14:56:51 10° ESE daylight
03 Feb - 16:47:00 10° W 17:00:23 42° SSW 17:08:23 10° SE daylight
03 Feb - 19:09:13 10° WSW 19:12:12 12° SW 19:14:48 10° SSW visible
